sat.trackr.live / text

‹ back to catalog

STARLINK-31800

NORAD 59643 · 2024-082N

PAYLOAD ACTIVE UNKNOWN

§ Identity

Operator
Country
US
Launch date
2024-05-03
Launch site
AFETR
Launch vehicle
Mass (kg)
RCS (m²)

Purposes: comms

External: N2YO · Heavens-Above · Gunter

§ Orbital elements

Epoch: 2026-09-21T06:53:51.102528Z

Period
94.27 min
Inclination
43.0014°
Eccentricity
0.0000628
Mean motion
15.27581108 rev/d
Perigee alt
482.6 km
Apogee alt
483.5 km
Semi-major
6,861.2 km
B*
1.3397e-5
RAAN
115.3665°
Arg perigee
6.5080°
Mean anomaly
353.5780°
Rev number
13,482

§ Raw data

STARLINK-318001 59643U 24082N   26264.28739702  .00000107  00000+0  13397-4 0  99952 59643  43.0014 115.3665 0000628   6.5080 353.5780 15.27581108134820

JSON: /api/v1/satellites/59643 · /tle

For live sub-satellite position, see the globe view (requires WebGL).

§ Visibility from observer

Set your observer location to see the next 7 days of passes ≥ 10°. The values pass through the URL so the page stays shareable.

No JS? Fill the form by hand. The geolocation button needs JavaScript.